Time,TemperatureF,DewpointF,PressureIn,WindDirection,WindDirectionDegrees,WindSpeedMPH,WindSpeedGustMPH,Humidity,HourlyPrecipIn,Conditions,Clouds,dailyrainin,SoftwareType,DateUTC
2013-02-07 00:00:00,30.9,26.9,30.23,ESE,118,3.0,11.0,85,0.00,,,0.00,WUHU216DAVISVP2,2013-02-07 05:00:00,
2013-02-07 00:01:00,30.9,26.9,30.23,SE,136,2.0,11.0,85,0.00,,,0.00,WUHU216DAVISVP2,2013-02-07 05:01:00,
2013-02-07 00:06:00,30.9,27.2,30.24,SE,131,1.0,9.0,86,0.00,,,0.00,WUHU216DAVISVP2,2013-02-07 05:06:00,
2013-02-07 00:11:00,30.9,27.2,30.24,SE,143,0.0,7.0,86,0.00,,,0.00,WUHU216DAVISVP2,2013-02-07 05:11:00,
2013-02-07 00:16:00,30.9,27.2,30.24,SSE,148,2.0,7.0,86,0.00,,,0.00,WUHU216DAVISVP2,2013-02-07 05:16:00,
2013-02-07 00:21:00,30.9,27.2,30.24,SE,143,0.0,6.0,86,0.00,,,0.00,WUHU216DAVISVP2,2013-02-07 05:21:00,
2013-02-07 00:26:00,30.8,27.1,30.24,SE,142,1.0,5.0,86,0.00,,,0.00,WUHU216DAVISVP2,2013-02-07 05:26:00,
2013-02-07 00:31:00,30.8,27.1,30.24,SE,134,2.0,5.0,86,0.00,,,0.00,WUHU216DAVISVP2,2013-02-07 05:31:00,
2013-02-07 00:36:00,30.8,27.1,30.25,SE,127,1.0,5.0,86,0.00,,,0.00,WUHU216DAVISVP2,2013-02-07 05:36:00,
2013-02-07 00:41:00,30.8,27.1,30.25,SSE,151,3.0,5.0,86,0.00,,,0.00,WUHU216DAVISVP2,2013-02-07 05:41:00,
2013-02-07 00:46:00,30.8,27.1,30.24,SE,134,4.0,4.0,86,0.00,,,0.00,WUHU216DAVISVP2,2013-02-07 05:46:00,
2013-02-07 00:51:00,30.7,27.0,30.24,SE,126,2.0,6.0,86,0.00,,,0.00,WUHU216DAVISVP2,2013-02-07 05:51:00,
2013-02-07 00:56:00,30.7,27.0,30.24,SE,131,4.0,6.0,86,0.00,,,0.00,WUHU216DAVISVP2,2013-02-07 05:56:00,
2013-02-07 01:01:00,30.7,27.3,30.24,ESE,109,5.0,7.0,87,0.00,,,0.00,WUHU216DAVISVP2,2013-02-07 06:01:00,
2013-02-07 01:06:00,30.7,27.3,30.23,SE,126,3.0,7.0,87,0.00,,,0.00,WUHU216DAVISVP2,2013-02-07 06:06:00,
2013-02-07 01:11:00,30.8,27.4,30.23,SE,131,6.0,8.0,87,0.00,,,0.00,WUHU216DAVISVP2,2013-02-07 06:11:00,
2013-02-07 01:16:00,30.7,27.0,30.22,ESE,110,4.0,8.0,86,0.00,,,0.00,WUHU216DAVISVP2,2013-02-07 06:16:00,
2013-02-07 01:21:00,30.7,27.3,30.22,ESE,104,5.0,10.0,87,0.00,,,0.00,WUHU216DAVISVP2,2013-02-07 06:21:00,
2013-02-07 01:26:00,30.7,27.3,30.22,ESE,113,5.0,10.0,87,0.00,,,0.00,WUHU216DAVISVP2,2013-02-07 06:26:00,
2013-02-07 01:31:00,30.6,27.2,30.21,ESE,105,4.0,9.0,87,0.00,,,0.00,WUHU216DAVISVP2,2013-02-07 06:31:00,
2013-02-07 01:36:00,30.6,27.2,30.21,ESE,112,6.0,10.0,87,0.00,,,0.00,WUHU216DAVISVP2,2013-02-07 06:36:00,
2013-02-07 01:41:00,30.6,27.2,30.21,ESE,102,8.0,10.0,87,0.00,,,0.00,WUHU216DAVISVP2,2013-02-07 06:41:00,
2013-02-07 01:46:00,30.5,27.1,30.20,ESE,106,6.0,10.0,87,0.00,,,0.00,WUHU216DAVISVP2,2013-02-07 06:46:00,
2013-02-07 01:51:00,30.5,27.1,30.20,ESE,102,9.0,11.0,87,0.00,,,0.00,WUHU216DAVISVP2,2013-02-07 06:51:00,
2013-02-07 01:56:00,30.4,27.0,30.20,ESE,117,7.0,11.0,87,0.00,,,0.00,WUHU216DAVISVP2,2013-02-07 06:56:00,
2013-02-07 02:01:00,30.4,27.0,30.19,ESE,115,8.0,11.0,87,0.00,,,0.00,WUHU216DAVISVP2,2013-02-07 07:01:00,
2013-02-07 02:06:00,30.4,27.0,30.19,ESE,110,14.0,14.0,87,0.00,,,0.00,WUHU216DAVISVP2,2013-02-07 07:06:00,
2013-02-07 02:11:00,30.3,26.9,30.18,ESE,107,8.0,14.0,87,0.00,,,0.00,WUHU216DAVISVP2,2013-02-07 07:11:00,
2013-02-07 02:16:00,30.3,26.9,30.18,SE,132,8.0,14.0,87,0.00,,,0.00,WUHU216DAVISVP2,2013-02-07 07:16:00,
2013-02-07 02:21:00,30.3,26.9,30.18,ESE,116,6.0,13.0,87,0.00,,,0.00,WUHU216DAVISVP2,2013-02-07 07:21:00,
2013-02-07 02:26:00,30.3,26.9,30.18,ESE,119,8.0,14.0,87,0.00,,,0.00,WUHU216DAVISVP2,2013-02-07 07:26:00,
2013-02-07 02:31:00,30.4,27.0,30.18,ESE,113,7.0,14.0,87,0.00,,,0.00,WUHU216DAVISVP2,2013-02-07 07:31:00,
2013-02-07 02:39:00,30.4,27.0,30.18,SE,131,6.0,14.0,87,0.00,,,0.00,WUHU216DAVISVP2,2013-02-07 07:39:00,
2013-02-07 02:44:00,30.5,27.1,30.19,SE,141,8.0,12.0,87,0.00,,,0.00,WUHU216DAVISVP2,2013-02-07 07:44:00,
2013-02-07 02:49:00,30.6,27.2,30.19,ESE,110,6.0,11.0,87,0.00,,,0.00,WUHU216DAVISVP2,2013-02-07 07:49:00,
2013-02-07 02:54:00,30.6,27.2,30.19,ESE,112,8.0,11.0,87,0.00,,,0.00,WUHU216DAVISVP2,2013-02-07 07:54:00,
2013-02-07 02:59:00,30.7,27.3,30.19,ESE,120,7.0,11.0,87,0.00,,,0.00,WUHU216DAVISVP2,2013-02-07 07:59:00,
2013-02-07 03:04:00,30.6,27.2,30.19,ESE,103,7.0,11.0,87,0.00,,,0.00,WUHU216DAVISVP2,2013-02-07 08:04:00,
2013-02-07 03:09:00,30.6,27.2,30.19,ESE,123,4.0,11.0,87,0.00,,,0.00,WUHU216DAVISVP2,2013-02-07 08:09:00,
2013-02-07 03:14:00,30.6,27.2,30.19,ESE,109,5.0,10.0,87,0.00,,,0.00,WUHU216DAVISVP2,2013-02-07 08:14:00,
2013-02-07 03:19:00,30.5,27.1,30.18,SE,126,8.0,10.0,87,0.00,,,0.00,WUHU216DAVISVP2,2013-02-07 08:19:00,
2013-02-07 03:24:00,30.4,27.0,30.18,East,89,5.0,10.0,87,0.00,,,0.00,WUHU216DAVISVP2,2013-02-07 08:24:00,
2013-02-07 03:29:00,30.4,27.0,30.18,ESE,107,9.0,11.0,87,0.00,,,0.00,WUHU216DAVISVP2,2013-02-07 08:29:00,
2013-02-07 03:34:00,30.4,27.0,30.18,East,96,5.0,11.0,87,0.00,,,0.00,WUHU216DAVISVP2,2013-02-07 08:34:00,
2013-02-07 03:39:00,30.3,26.9,30.18,East,89,5.0,10.0,87,0.00,,,0.00,WUHU216DAVISVP2,2013-02-07 08:39:00,
2013-02-07 03:44:00,30.3,26.9,30.18,East,89,3.0,10.0,87,0.00,,,0.00,WUHU216DAVISVP2,2013-02-07 08:44:00,
2013-02-07 03:49:00,30.2,27.1,30.18,East,90,3.0,9.0,88,0.00,,,0.00,WUHU216DAVISVP2,2013-02-07 08:49:00,
2013-02-07 03:54:00,30.2,27.1,30.18,East,79,3.0,7.0,88,0.00,,,0.00,WUHU216DAVISVP2,2013-02-07 08:54:00,
2013-02-07 03:59:00,30.2,27.1,30.18,East,82,5.0,7.0,88,0.00,,,0.00,WUHU216DAVISVP2,2013-02-07 08:59:00,
2013-02-07 04:04:00,30.0,26.9,30.18,ENE,77,3.0,8.0,88,0.00,,,0.00,WUHU216DAVISVP2,2013-02-07 09:04:00,
2013-02-07 04:09:00,29.9,26.8,30.17,East,82,4.0,8.0,88,0.00,,,0.00,WUHU216DAVISVP2,2013-02-07 09:09:00,
2013-02-07 04:14:00,29.8,27.0,30.18,East,81,6.0,8.0,89,0.00,,,0.00,WUHU216DAVISVP2,2013-02-07 09:14:00,
2013-02-07 04:19:00,29.8,27.0,30.17,ENE,78,5.0,8.0,89,0.00,,,0.00,WUHU216DAVISVP2,2013-02-07 09:19:00,
2013-02-07 04:24:00,29.8,26.9,30.18,ENE,77,4.0,7.0,89,0.00,,,0.00,WUHU216DAVISVP2,2013-02-07 09:24:00,
2013-02-07 04:29:00,29.7,26.8,30.18,East,80,6.0,7.0,89,0.00,,,0.00,WUHU216DAVISVP2,2013-02-07 09:29:00,
2013-02-07 04:34:00,29.6,26.7,30.19,ENE,77,4.0,7.0,89,0.00,,,0.00,WUHU216DAVISVP2,2013-02-07 09:34:00,
2013-02-07 04:39:00,29.4,26.5,30.19,ENE,77,2.0,7.0,89,0.00,,,0.00,WUHU216DAVISVP2,2013-02-07 09:39:00,
2013-02-07 04:44:00,29.4,26.5,30.20,East,86,1.0,6.0,89,0.00,,,0.00,WUHU216DAVISVP2,2013-02-07 09:44:00,
2013-02-07 04:49:00,29.4,26.8,30.20,ENE,65,1.0,5.0,90,0.00,,,0.00,WUHU216DAVISVP2,2013-02-07 09:49:00,
2013-02-07 04:54:00,29.4,26.5,30.20,ENE,77,2.0,3.0,89,0.00,,,0.00,WUHU216DAVISVP2,2013-02-07 09:54:00,
2013-02-07 04:59:00,29.4,26.5,30.19,East,90,4.0,6.0,89,0.00,,,0.00,WUHU216DAVISVP2,2013-02-07 09:59:00,
2013-02-07 05:04:00,29.4,26.5,30.19,East,91,3.0,7.0,89,0.00,,,0.00,WUHU216DAVISVP2,2013-02-07 10:04:00,
2013-02-07 05:09:00,29.3,26.4,30.18,ESE,104,4.0,7.0,89,0.00,,,0.00,WUHU216DAVISVP2,2013-02-07 10:09:00,
2013-02-07 05:14:00,29.3,26.4,30.18,ESE,105,9.0,11.0,89,0.00,,,0.00,WUHU216DAVISVP2,2013-02-07 10:14:00,
2013-02-07 05:19:00,29.3,26.4,30.18,ESE,102,9.0,12.0,89,0.00,,,0.00,WUHU216DAVISVP2,2013-02-07 10:19:00,
2013-02-07 05:24:00,29.3,26.4,30.18,ESE,104,7.0,12.0,89,0.00,,,0.00,WUHU216DAVISVP2,2013-02-07 10:24:00,
2013-02-07 05:29:00,29.2,26.6,30.18,East,81,6.0,12.0,90,0.00,,,0.00,WUHU216DAVISVP2,2013-02-07 10:29:00,
2013-02-07 05:34:00,29.2,26.6,30.18,East,99,9.0,11.0,90,0.00,,,0.00,WUHU216DAVISVP2,2013-02-07 10:34:00,
2013-02-07 05:39:00,29.2,26.6,30.18,East,93,6.0,10.0,90,0.00,,,0.00,WUHU216DAVISVP2,2013-02-07 10:39:00,
2013-02-07 05:44:00,29.1,26.5,30.18,East,99,9.0,10.0,90,0.00,,,0.00,WUHU216DAVISVP2,2013-02-07 10:44:00,
2013-02-07 05:49:00,29.0,26.4,30.18,ESE,103,6.0,10.0,90,0.00,,,0.00,WUHU216DAVISVP2,2013-02-07 10:49:00,
2013-02-07 05:54:00,29.0,26.4,30.18,ESE,103,10.0,12.0,90,0.00,,,0.00,WUHU216DAVISVP2,2013-02-07 10:54:00,
2013-02-07 05:59:00,29.0,26.4,30.18,East,95,10.0,12.0,90,0.00,,,0.00,WUHU216DAVISVP2,2013-02-07 10:59:00,
2013-02-07 06:04:00,29.1,26.5,30.18,ESE,107,9.0,13.0,90,0.00,,,0.00,WUHU216DAVISVP2,2013-02-07 11:04:00,
2013-02-07 06:09:00,29.1,26.5,30.18,East,91,3.0,13.0,90,0.00,,,0.00,WUHU216DAVISVP2,2013-02-07 11:09:00,
2013-02-07 06:14:00,29.1,26.5,30.19,East,95,3.0,11.0,90,0.00,,,0.00,WUHU216DAVISVP2,2013-02-07 11:14:00,
2013-02-07 06:19:00,29.1,26.5,30.19,ESE,102,8.0,11.0,90,0.00,,,0.00,WUHU216DAVISVP2,2013-02-07 11:19:00,
2013-02-07 06:24:00,29.1,26.5,30.18,East,99,8.0,12.0,90,0.00,,,0.00,WUHU216DAVISVP2,2013-02-07 11:24:00,
2013-02-07 06:29:00,29.1,26.5,30.18,East,82,6.0,12.0,90,0.00,,,0.00,WUHU216DAVISVP2,2013-02-07 11:29:00,
2013-02-07 06:34:00,29.1,26.5,30.18,East,97,7.0,11.0,90,0.00,,,0.00,WUHU216DAVISVP2,2013-02-07 11:34:00,
2013-02-07 06:39:00,29.0,26.4,30.17,East,101,7.0,12.0,90,0.00,,,0.00,WUHU216DAVISVP2,2013-02-07 11:39:00,
2013-02-07 06:44:00,29.0,26.4,30.17,East,89,8.0,12.0,90,0.00,,,0.00,WUHU216DAVISVP2,2013-02-07 11:44:00,
2013-02-07 06:49:00,29.0,26.4,30.17,East,89,8.0,12.0,90,0.00,,,0.00,WUHU216DAVISVP2,2013-02-07 11:49:00,
2013-02-07 06:54:00,29.0,26.4,30.17,East,99,11.0,11.0,90,0.00,,,0.00,WUHU216DAVISVP2,2013-02-07 11:54:00,
2013-02-07 06:59:00,29.0,26.4,30.17,East,86,6.0,11.0,90,0.00,,,0.00,WUHU216DAVISVP2,2013-02-07 11:59:00,
2013-02-07 07:04:00,29.0,26.4,30.17,East,91,9.0,11.0,90,0.00,,,0.00,WUHU216DAVISVP2,2013-02-07 12:04:00,
2013-02-07 07:09:00,28.9,26.3,30.17,East,87,7.0,11.0,90,0.00,,,0.00,WUHU216DAVISVP2,2013-02-07 12:09:00,
2013-02-07 07:14:00,28.9,26.3,30.17,East,94,9.0,12.0,90,0.00,,,0.00,WUHU216DAVISVP2,2013-02-07 12:14:00,
2013-02-07 07:19:00,28.9,26.3,30.17,ESE,107,6.0,12.0,90,0.00,,,0.00,WUHU216DAVISVP2,2013-02-07 12:19:00,
2013-02-07 07:24:00,28.9,26.3,30.17,ESE,103,7.0,12.0,90,0.00,,,0.00,WUHU216DAVISVP2,2013-02-07 12:24:00,
2013-02-07 07:29:00,28.9,26.3,30.17,East,89,5.0,12.0,90,0.00,,,0.00,WUHU216DAVISVP2,2013-02-07 12:29:00,
2013-02-07 07:34:00,28.9,26.3,30.17,East,94,6.0,11.0,90,0.00,,,0.00,WUHU216DAVISVP2,2013-02-07 12:34:00,
2013-02-07 07:39:00,28.9,26.3,30.17,East,101,6.0,10.0,90,0.00,,,0.00,WUHU216DAVISVP2,2013-02-07 12:39:00,
2013-02-07 07:44:00,28.9,26.3,30.17,East,89,4.0,9.0,90,0.00,,,0.00,WUHU216DAVISVP2,2013-02-07 12:44:00,
2013-02-07 07:49:00,28.8,26.2,30.16,East,91,6.0,10.0,90,0.00,,,0.00,WUHU216DAVISVP2,2013-02-07 12:49:00,
2013-02-07 07:54:00,28.8,26.2,30.16,East,84,4.0,10.0,90,0.00,,,0.00,WUHU216DAVISVP2,2013-02-07 12:54:00,
2013-02-07 07:59:00,28.7,26.1,30.17,East,81,6.0,9.0,90,0.00,,,0.00,WUHU216DAVISVP2,2013-02-07 12:59:00,
2013-02-07 08:04:00,28.7,26.1,30.17,East,94,4.0,9.0,90,0.00,,,0.00,WUHU216DAVISVP2,2013-02-07 13:04:00,
2013-02-07 08:09:00,28.7,26.1,30.17,East,84,6.0,8.0,90,0.00,,,0.00,WUHU216DAVISVP2,2013-02-07 13:09:00,
2013-02-07 08:14:00,28.7,26.1,30.17,East,80,5.0,7.0,90,0.00,,,0.00,WUHU216DAVISVP2,2013-02-07 13:14:00,
2013-02-07 08:19:00,28.7,26.1,30.17,East,99,4.0,7.0,90,0.00,,,0.00,WUHU216DAVISVP2,2013-02-07 13:19:00,
2013-02-07 08:24:00,28.6,26.0,30.16,East,84,4.0,7.0,90,0.00,,,0.00,WUHU216DAVISVP2,2013-02-07 13:24:00,
2013-02-07 08:29:00,28.6,26.0,30.17,East,79,2.0,9.0,90,0.00,,,0.00,WUHU216DAVISVP2,2013-02-07 13:29:00,
2013-02-07 08:34:00,28.6,26.0,30.16,ENE,78,7.0,9.0,90,0.00,,,0.00,WUHU216DAVISVP2,2013-02-07 13:34:00,
2013-02-07 08:39:00,28.6,26.0,30.16,ESE,105,6.0,10.0,90,0.00,,,0.00,WUHU216DAVISVP2,2013-02-07 13:39:00,
2013-02-07 08:44:00,28.7,26.1,30.16,East,98,7.0,10.0,90,0.00,,,0.00,WUHU216DAVISVP2,2013-02-07 13:44:00,
2013-02-07 08:49:00,28.7,26.1,30.17,ENE,77,4.0,10.0,90,0.00,,,0.00,WUHU216DAVISVP2,2013-02-07 13:49:00,
2013-02-07 08:54:00,28.7,26.1,30.17,ENE,77,2.0,9.0,90,0.00,,,0.00,WUHU216DAVISVP2,2013-02-07 13:54:00,
2013-02-07 08:59:00,28.7,26.1,30.17,ENE,71,3.0,9.0,90,0.00,,,0.00,WUHU216DAVISVP2,2013-02-07 13:59:00,
2013-02-07 09:04:00,28.7,26.1,30.17,ENE,71,4.0,6.0,90,0.00,,,0.00,WUHU216DAVISVP2,2013-02-07 14:04:00,
2013-02-07 09:09:00,28.8,26.2,30.16,ENE,75,5.0,8.0,90,0.00,,,0.00,WUHU216DAVISVP2,2013-02-07 14:09:00,
2013-02-07 09:14:00,28.9,26.3,30.17,ENE,78,6.0,9.0,90,0.00,,,0.00,WUHU216DAVISVP2,2013-02-07 14:14:00,
2013-02-07 09:19:00,29.1,26.5,30.17,East,86,4.0,9.0,90,0.00,,,0.00,WUHU216DAVISVP2,2013-02-07 14:19:00,
2013-02-07 09:24:00,29.2,26.6,30.16,ENE,72,6.0,10.0,90,0.00,,,0.00,WUHU216DAVISVP2,2013-02-07 14:24:00,
2013-02-07 09:29:00,29.4,26.5,30.16,East,79,5.0,10.0,89,0.00,,,0.00,WUHU216DAVISVP2,2013-02-07 14:29:00,
2013-02-07 09:34:00,29.5,26.6,30.15,East,82,9.0,10.0,89,0.00,,,0.00,WUHU216DAVISVP2,2013-02-07 14:34:00,
2013-02-07 09:39:00,29.7,26.8,30.15,East,101,9.0,12.0,89,0.00,,,0.00,WUHU216DAVISVP2,2013-02-07 14:39:00,
2013-02-07 09:44:00,29.9,27.0,30.15,ESE,102,9.0,12.0,89,0.00,,,0.00,WUHU216DAVISVP2,2013-02-07 14:44:00,
2013-02-07 09:49:00,30.2,27.0,30.15,East,92,13.0,13.0,88,0.00,,,0.00,WUHU216DAVISVP2,2013-02-07 14:49:00,
2013-02-07 09:54:00,30.4,27.2,30.15,East,96,10.0,13.0,88,0.00,,,0.00,WUHU216DAVISVP2,2013-02-07 14:54:00,
2013-02-07 09:59:00,30.5,27.1,30.15,East,96,9.0,13.0,87,0.00,,,0.00,WUHU216DAVISVP2,2013-02-07 14:59:00,
2013-02-07 10:04:00,30.6,27.2,30.14,East,95,10.0,14.0,87,0.00,,,0.00,WUHU216DAVISVP2,2013-02-07 15:04:00,
2013-02-07 10:09:00,30.7,27.3,30.14,East,91,9.0,14.0,87,0.00,,,0.00,WUHU216DAVISVP2,2013-02-07 15:09:00,
2013-02-07 10:14:00,30.9,27.5,30.14,East,90,8.0,13.0,87,0.00,,,0.00,WUHU216DAVISVP2,2013-02-07 15:14:00,
2013-02-07 10:19:00,31.0,27.5,30.13,East,89,10.0,13.0,87,0.00,,,0.00,WUHU216DAVISVP2,2013-02-07 15:19:00,
2013-02-07 10:24:00,31.3,27.8,30.13,East,87,8.0,13.0,87,0.00,,,0.00,WUHU216DAVISVP2,2013-02-07 15:24:00,
2013-02-07 10:29:00,31.7,28.0,30.12,East,90,10.0,14.0,86,0.00,,,0.00,WUHU216DAVISVP2,2013-02-07 15:29:00,
2013-02-07 10:34:00,32.1,28.4,30.12,ESE,102,9.0,14.0,86,0.00,,,0.00,WUHU216DAVISVP2,2013-02-07 15:34:00,
2013-02-07 10:39:00,32.3,28.3,30.12,East,94,9.0,15.0,85,0.00,,,0.00,WUHU216DAVISVP2,2013-02-07 15:39:00,
2013-02-07 10:44:00,32.5,28.5,30.11,East,99,10.0,15.0,85,0.00,,,0.00,WUHU216DAVISVP2,2013-02-07 15:44:00,
2013-02-07 10:49:00,32.7,28.7,30.11,ESE,123,10.0,16.0,85,0.00,,,0.00,WUHU216DAVISVP2,2013-02-07 15:49:00,
2013-02-07 10:54:00,33.0,29.0,30.12,ESE,115,8.0,16.0,85,0.00,,,0.00,WUHU216DAVISVP2,2013-02-07 15:54:00,
2013-02-07 10:59:00,33.4,29.1,30.11,SE,126,11.0,16.0,84,0.00,,,0.00,WUHU216DAVISVP2,2013-02-07 15:59:00,
2013-02-07 11:04:00,33.7,29.4,30.11,ESE,110,13.0,16.0,84,0.00,,,0.00,WUHU216DAVISVP2,2013-02-07 16:04:00,
2013-02-07 11:09:00,34.1,29.5,30.11,ESE,115,14.0,16.0,83,0.00,,,0.00,WUHU216DAVISVP2,2013-02-07 16:09:00,
2013-02-07 11:14:00,34.4,29.8,30.11,SE,127,14.0,16.0,83,0.00,,,0.00,WUHU216DAVISVP2,2013-02-07 16:14:00,
2013-02-07 11:19:00,34.5,29.6,30.11,ESE,113,14.0,16.0,82,0.00,,,0.00,WUHU216DAVISVP2,2013-02-07 16:19:00,
2013-02-07 11:24:00,34.6,29.7,30.10,ESE,115,11.0,19.0,82,0.00,,,0.00,WUHU216DAVISVP2,2013-02-07 16:24:00,
2013-02-07 11:29:00,34.7,29.8,30.10,ESE,103,14.0,19.0,82,0.00,,,0.00,WUHU216DAVISVP2,2013-02-07 16:29:00,
2013-02-07 11:34:00,34.8,29.9,30.09,ESE,103,17.0,19.0,82,0.00,,,0.00,WUHU216DAVISVP2,2013-02-07 16:34:00,
2013-02-07 11:39:00,35.0,30.1,30.09,East,96,13.0,19.0,82,0.00,,,0.00,WUHU216DAVISVP2,2013-02-07 16:39:00,
2013-02-07 11:44:00,35.3,30.4,30.09,ESE,105,9.0,18.0,82,0.00,,,0.00,WUHU216DAVISVP2,2013-02-07 16:44:00,
2013-02-07 11:49:00,35.5,30.3,30.09,ESE,105,11.0,18.0,81,0.00,,,0.00,WUHU216DAVISVP2,2013-02-07 16:49:00,
2013-02-07 11:54:00,35.6,30.3,30.09,ESE,113,11.0,16.0,81,0.00,,,0.00,WUHU216DAVISVP2,2013-02-07 16:54:00,
2013-02-07 11:59:00,35.7,30.4,30.09,East,97,11.0,16.0,81,0.00,,,0.00,WUHU216DAVISVP2,2013-02-07 16:59:00,
2013-02-07 12:04:00,35.9,30.6,30.09,ESE,119,10.0,15.0,81,0.00,,,0.00,WUHU216DAVISVP2,2013-02-07 17:04:00,
2013-02-07 12:09:00,36.1,30.8,30.08,SE,130,7.0,15.0,81,0.00,,,0.00,WUHU216DAVISVP2,2013-02-07 17:09:00,
2013-02-07 12:14:00,36.3,31.0,30.08,ESE,113,10.0,14.0,81,0.00,,,0.00,WUHU216DAVISVP2,2013-02-07 17:14:00,
2013-02-07 12:19:00,36.4,31.1,30.08,ESE,106,12.0,13.0,81,0.00,,,0.00,WUHU216DAVISVP2,2013-02-07 17:19:00,
2013-02-07 12:24:00,36.5,31.2,30.08,East,101,10.0,13.0,81,0.00,,,0.00,WUHU216DAVISVP2,2013-02-07 17:24:00,
2013-02-07 12:29:00,36.5,31.2,30.08,ESE,104,10.0,13.0,81,0.00,,,0.00,WUHU216DAVISVP2,2013-02-07 17:29:00,
2013-02-07 12:34:00,36.6,31.3,30.07,East,88,7.0,13.0,81,0.00,,,0.00,WUHU216DAVISVP2,2013-02-07 17:34:00,
2013-02-07 12:39:00,36.7,31.4,30.07,East,98,6.0,13.0,81,0.00,,,0.00,WUHU216DAVISVP2,2013-02-07 17:39:00,
2013-02-07 12:44:00,36.9,31.6,30.06,East,91,8.0,12.0,81,0.00,,,0.00,WUHU216DAVISVP2,2013-02-07 17:44:00,
2013-02-07 12:49:00,37.1,32.1,30.06,East,98,13.0,13.0,82,0.00,,,0.00,WUHU216DAVISVP2,2013-02-07 17:49:00,
2013-02-07 12:54:00,37.1,32.1,30.05,East,91,6.0,13.0,82,0.00,,,0.00,WUHU216DAVISVP2,2013-02-07 17:54:00,
2013-02-07 12:59:00,37.2,31.9,30.05,East,92,12.0,14.0,81,0.00,,,0.00,WUHU216DAVISVP2,2013-02-07 17:59:00,
2013-02-07 13:04:00,37.1,31.8,30.05,East,91,10.0,14.0,81,0.00,,,0.00,WUHU216DAVISVP2,2013-02-07 18:04:00,
2013-02-07 13:09:00,37.1,31.8,30.04,East,95,12.0,15.0,81,0.00,,,0.00,WUHU216DAVISVP2,2013-02-07 18:09:00,
2013-02-07 13:14:00,37.2,32.2,30.04,ESE,105,11.0,15.0,82,0.00,,,0.00,WUHU216DAVISVP2,2013-02-07 18:14:00,
2013-02-07 13:19:00,37.6,32.6,30.03,East,82,13.0,15.0,82,0.00,,,0.00,WUHU216DAVISVP2,2013-02-07 18:19:00,
2013-02-07 13:24:00,37.7,32.7,30.03,ESE,103,12.0,15.0,82,0.00,,,0.00,WUHU216DAVISVP2,2013-02-07 18:24:00,
2013-02-07 13:29:00,37.9,32.6,30.03,ESE,108,11.0,15.0,81,0.00,,,0.00,WUHU216DAVISVP2,2013-02-07 18:29:00,
2013-02-07 13:34:00,38.3,33.3,30.02,ESE,102,11.0,16.0,82,0.00,,,0.00,WUHU216DAVISVP2,2013-02-07 18:34:00,
2013-02-07 13:39:00,38.5,33.2,30.02,ESE,102,6.0,16.0,81,0.00,,,0.00,WUHU216DAVISVP2,2013-02-07 18:39:00,
2013-02-07 13:44:00,38.8,33.2,30.01,ESE,105,9.0,15.0,80,0.00,,,0.00,WUHU216DAVISVP2,2013-02-07 18:44:00,
2013-02-07 13:49:00,39.1,33.5,30.01,East,96,11.0,14.0,80,0.00,,,0.00,WUHU216DAVISVP2,2013-02-07 18:49:00,
2013-02-07 13:54:00,39.4,34.1,30.01,ESE,106,8.0,14.0,81,0.00,,,0.00,WUHU216DAVISVP2,2013-02-07 18:54:00,
2013-02-07 13:59:00,39.6,34.0,30.01,East,82,8.0,13.0,80,0.00,,,0.00,WUHU216DAVISVP2,2013-02-07 18:59:00,
2013-02-07 14:04:00,39.9,34.6,30.01,East,96,8.0,13.0,81,0.00,,,0.00,WUHU216DAVISVP2,2013-02-07 19:04:00,
2013-02-07 14:09:00,40.1,34.7,30.00,East,92,9.0,13.0,81,0.00,,,0.00,WUHU216DAVISVP2,2013-02-07 19:09:00,
2013-02-07 14:14:00,40.2,34.5,30.00,ESE,108,7.0,13.0,80,0.00,,,0.00,WUHU216DAVISVP2,2013-02-07 19:14:00,
2013-02-07 14:19:00,40.3,34.3,30.00,SE,124,10.0,13.0,79,0.00,,,0.00,WUHU216DAVISVP2,2013-02-07 19:19:00,
2013-02-07 14:24:00,40.5,34.8,29.99,East,101,9.0,13.0,80,0.00,,,0.00,WUHU216DAVISVP2,2013-02-07 19:24:00,
2013-02-07 14:29:00,40.7,35.0,29.99,ESE,103,7.0,13.0,80,0.00,,,0.00,WUHU216DAVISVP2,2013-02-07 19:29:00,
2013-02-07 14:34:00,41.0,35.0,29.98,East,89,8.0,14.0,79,0.00,,,0.00,WUHU216DAVISVP2,2013-02-07 19:34:00,
2013-02-07 14:39:00,41.1,35.1,29.98,SE,131,7.0,14.0,79,0.00,,,0.00,WUHU216DAVISVP2,2013-02-07 19:39:00,
2013-02-07 14:44:00,40.9,34.9,29.98,ESE,103,8.0,15.0,79,0.00,,,0.00,WUHU216DAVISVP2,2013-02-07 19:44:00,
2013-02-07 14:49:00,40.9,34.9,29.97,East,81,9.0,15.0,79,0.00,,,0.00,WUHU216DAVISVP2,2013-02-07 19:49:00,
2013-02-07 14:54:00,41.0,35.3,29.97,East,95,12.0,15.0,80,0.00,,,0.00,WUHU216DAVISVP2,2013-02-07 19:54:00,
2013-02-07 14:59:00,40.9,35.2,29.97,East,96,7.0,14.0,80,0.00,,,0.00,WUHU216DAVISVP2,2013-02-07 19:59:00,
2013-02-07 15:04:00,41.2,35.8,29.97,ESE,102,8.0,13.0,81,0.00,,,0.00,WUHU216DAVISVP2,2013-02-07 20:04:00,
2013-02-07 15:09:00,41.4,36.0,29.97,ESE,108,5.0,11.0,81,0.00,,,0.00,WUHU216DAVISVP2,2013-02-07 20:09:00,
2013-02-07 15:14:00,41.6,36.2,29.97,ESE,110,7.0,10.0,81,0.00,,,0.00,WUHU216DAVISVP2,2013-02-07 20:14:00,
2013-02-07 15:19:00,41.8,36.1,29.96,East,93,6.0,11.0,80,0.00,,,0.00,WUHU216DAVISVP2,2013-02-07 20:19:00,
2013-02-07 15:24:00,41.4,35.7,29.96,ESE,108,5.0,11.0,80,0.00,,,0.00,WUHU216DAVISVP2,2013-02-07 20:24:00,
2013-02-07 15:29:00,41.5,35.8,29.96,ESE,110,7.0,10.0,80,0.00,,,0.00,WUHU216DAVISVP2,2013-02-07 20:29:00,
2013-02-07 15:34:00,41.8,36.4,29.96,East,93,7.0,10.0,81,0.00,,,0.00,WUHU216DAVISVP2,2013-02-07 20:34:00,
2013-02-07 15:39:00,42.0,36.3,29.95,East,93,6.0,10.0,80,0.00,,,0.00,WUHU216DAVISVP2,2013-02-07 20:39:00,
2013-02-07 15:44:00,42.0,36.3,29.95,ESE,111,11.0,11.0,80,0.00,,,0.00,WUHU216DAVISVP2,2013-02-07 20:44:00,
2013-02-07 15:49:00,41.9,36.2,29.95,East,91,8.0,12.0,80,0.00,,,0.00,WUHU216DAVISVP2,2013-02-07 20:49:00,
2013-02-07 15:54:00,42.0,36.3,29.94,ESE,105,8.0,12.0,80,0.00,,,0.00,WUHU216DAVISVP2,2013-02-07 20:54:00,
2013-02-07 15:59:00,42.1,36.4,29.94,East,101,8.0,12.0,80,0.00,,,0.00,WUHU216DAVISVP2,2013-02-07 20:59:00,
2013-02-07 16:04:00,42.3,36.6,29.94,East,92,10.0,12.0,80,0.00,,,0.00,WUHU216DAVISVP2,2013-02-07 21:04:00,
2013-02-07 16:09:00,42.4,36.7,29.94,East,92,11.0,13.0,80,0.00,,,0.00,WUHU216DAVISVP2,2013-02-07 21:09:00,
2013-02-07 16:14:00,42.5,37.1,29.94,East,91,6.0,13.0,81,0.00,,,0.00,WUHU216DAVISVP2,2013-02-07 21:14:00,
2013-02-07 16:19:00,42.6,36.9,29.93,ESE,113,7.0,13.0,80,0.00,,,0.00,WUHU216DAVISVP2,2013-02-07 21:19:00,
2013-02-07 16:24:00,42.5,36.8,29.93,East,82,6.0,13.0,80,0.00,,,0.00,WUHU216DAVISVP2,2013-02-07 21:24:00,
2013-02-07 16:29:00,42.2,36.8,29.93,East,84,7.0,12.0,81,0.00,,,0.00,WUHU216DAVISVP2,2013-02-07 21:29:00,
2013-02-07 16:34:00,41.8,36.7,29.93,East,82,6.0,11.0,82,0.00,,,0.00,WUHU216DAVISVP2,2013-02-07 21:34:00,
2013-02-07 16:39:00,41.5,36.7,29.92,East,92,6.0,10.0,83,0.00,,,0.00,WUHU216DAVISVP2,2013-02-07 21:39:00,
2013-02-07 16:44:00,41.3,36.5,29.92,ENE,76,7.0,10.0,83,0.00,,,0.00,WUHU216DAVISVP2,2013-02-07 21:44:00,
2013-02-07 16:49:00,41.3,36.5,29.92,East,89,4.0,10.0,83,0.00,,,0.00,WUHU216DAVISVP2,2013-02-07 21:49:00,
2013-02-07 16:54:00,41.2,36.4,29.92,East,89,8.0,10.0,83,0.00,,,0.00,WUHU216DAVISVP2,2013-02-07 21:54:00,
2013-02-07 16:59:00,41.2,36.4,29.92,East,95,5.0,11.0,83,0.00,,,0.00,WUHU216DAVISVP2,2013-02-07 21:59:00,
2013-02-07 17:04:00,41.0,36.2,29.92,East,89,8.0,11.0,83,0.00,,,0.00,WUHU216DAVISVP2,2013-02-07 22:04:00,
2013-02-07 17:09:00,40.7,36.2,29.92,East,94,9.0,11.0,84,0.00,,,0.00,WUHU216DAVISVP2,2013-02-07 22:09:00,
2013-02-07 17:14:00,40.7,36.2,29.91,East,95,8.0,12.0,84,0.00,,,0.00,WUHU216DAVISVP2,2013-02-07 22:14:00,
2013-02-07 17:19:00,40.7,36.2,29.91,East,79,12.0,13.0,84,0.00,,,0.00,WUHU216DAVISVP2,2013-02-07 22:19:00,
2013-02-07 17:24:00,40.8,36.3,29.91,East,101,9.0,13.0,84,0.00,,,0.00,WUHU216DAVISVP2,2013-02-07 22:24:00,
2013-02-07 17:29:00,40.5,36.0,29.91,East,101,10.0,13.0,84,0.00,,,0.00,WUHU216DAVISVP2,2013-02-07 22:29:00,
2013-02-07 17:34:00,40.3,35.8,29.91,East,96,9.0,12.0,84,0.00,,,0.00,WUHU216DAVISVP2,2013-02-07 22:34:00,
2013-02-07 17:39:00,40.1,36.0,29.91,East,98,5.0,12.0,85,0.00,,,0.00,WUHU216DAVISVP2,2013-02-07 22:39:00,
2013-02-07 17:44:00,39.9,35.8,29.90,East,98,7.0,12.0,85,0.00,,,0.00,WUHU216DAVISVP2,2013-02-07 22:44:00,
2013-02-07 17:49:00,39.7,35.6,29.90,East,92,10.0,14.0,85,0.00,,,0.00,WUHU216DAVISVP2,2013-02-07 22:49:00,
2013-02-07 17:54:00,39.6,35.5,29.90,East,99,9.0,15.0,85,0.00,,,0.00,WUHU216DAVISVP2,2013-02-07 22:54:00,
2013-02-07 17:59:00,39.3,35.2,29.90,East,96,11.0,15.0,85,0.00,,,0.00,WUHU216DAVISVP2,2013-02-07 22:59:00,
2013-02-07 18:04:00,39.1,35.3,29.89,East,100,13.0,13.0,86,0.00,,,0.00,WUHU216DAVISVP2,2013-02-07 23:04:00,
2013-02-07 18:09:00,38.9,35.1,29.89,East,100,10.0,14.0,86,0.00,,,0.00,WUHU216DAVISVP2,2013-02-07 23:09:00,
2013-02-07 18:14:00,38.7,34.8,29.89,East,95,10.0,14.0,86,0.00,,,0.00,WUHU216DAVISVP2,2013-02-07 23:14:00,
2013-02-07 18:19:00,38.7,34.8,29.88,East,88,11.0,13.0,86,0.00,,,0.00,WUHU216DAVISVP2,2013-02-07 23:19:00,
2013-02-07 18:24:00,38.8,34.9,29.89,East,91,7.0,13.0,86,0.00,,,0.00,WUHU216DAVISVP2,2013-02-07 23:24:00,
2013-02-07 18:29:00,38.6,34.7,29.88,East,98,8.0,13.0,86,0.00,,,0.00,WUHU216DAVISVP2,2013-02-07 23:29:00,
2013-02-07 18:34:00,38.5,34.9,29.88,ESE,102,9.0,12.0,87,0.00,,,0.00,WUHU216DAVISVP2,2013-02-07 23:34:00,
2013-02-07 18:39:00,38.4,34.8,29.88,East,91,8.0,12.0,87,0.00,,,0.00,WUHU216DAVISVP2,2013-02-07 23:39:00,
2013-02-07 18:44:00,38.4,34.8,29.88,East,96,7.0,11.0,87,0.00,,,0.00,WUHU216DAVISVP2,2013-02-07 23:44:00,
2013-02-07 18:49:00,38.3,34.7,29.88,ENE,78,8.0,13.0,87,0.00,,,0.00,WUHU216DAVISVP2,2013-02-07 23:49:00,
2013-02-07 18:54:00,38.2,34.6,29.87,East,82,6.0,13.0,87,0.00,,,0.00,WUHU216DAVISVP2,2013-02-07 23:54:00,
2013-02-07 18:59:00,38.1,34.5,29.87,East,91,11.0,13.0,87,0.00,,,0.00,WUHU216DAVISVP2,2013-02-07 23:59:00,
2013-02-07 19:04:00,38.1,34.5,29.87,East,89,10.0,14.0,87,0.00,,,0.00,WUHU216DAVISVP2,2013-02-08 00:04:00,
2013-02-07 19:09:00,38.0,34.2,29.87,East,98,9.0,15.0,86,0.00,,,0.00,WUHU216DAVISVP2,2013-02-08 00:09:00,
2013-02-07 19:14:00,37.9,34.1,29.87,East,100,12.0,15.0,86,0.00,,,0.00,WUHU216DAVISVP2,2013-02-08 00:14:00,
2013-02-07 19:19:00,37.8,34.2,29.87,East,91,8.0,15.0,87,0.00,,,0.00,WUHU216DAVISVP2,2013-02-08 00:19:00,
2013-02-07 19:24:00,37.7,34.1,29.86,East,96,12.0,14.0,87,0.00,,,0.00,WUHU216DAVISVP2,2013-02-08 00:24:00,
2013-02-07 19:29:00,37.6,34.0,29.86,East,95,11.0,15.0,87,0.00,,,0.00,WUHU216DAVISVP2,2013-02-08 00:29:00,
2013-02-07 19:34:00,37.6,34.0,29.86,East,88,8.0,15.0,87,0.00,,,0.00,WUHU216DAVISVP2,2013-02-08 00:34:00,
2013-02-07 19:39:00,37.6,34.0,29.86,East,94,9.0,14.0,87,0.00,,,0.00,WUHU216DAVISVP2,2013-02-08 00:39:00,
2013-02-07 19:44:00,37.6,34.3,29.85,East,96,8.0,13.0,88,0.00,,,0.00,WUHU216DAVISVP2,2013-02-08 00:44:00,
2013-02-07 19:49:00,37.6,34.3,29.85,East,92,8.0,13.0,88,0.00,,,0.00,WUHU216DAVISVP2,2013-02-08 00:49:00,
2013-02-07 19:54:00,37.8,34.5,29.85,East,101,10.0,15.0,88,0.00,,,0.00,WUHU216DAVISVP2,2013-02-08 00:54:00,
2013-02-07 19:59:00,37.8,34.5,29.85,ESE,106,10.0,15.0,88,0.00,,,0.00,WUHU216DAVISVP2,2013-02-08 00:59:00,
2013-02-07 20:04:00,37.9,34.6,29.85,ESE,112,8.0,13.0,88,0.00,,,0.00,WUHU216DAVISVP2,2013-02-08 01:04:00,
2013-02-07 20:09:00,37.9,34.6,29.85,East,89,4.0,13.0,88,0.00,,,0.00,WUHU216DAVISVP2,2013-02-08 01:09:00,
2013-02-07 20:14:00,37.9,34.6,29.85,ESE,108,4.0,11.0,88,0.00,,,0.00,WUHU216DAVISVP2,2013-02-08 01:14:00,
2013-02-07 20:19:00,37.9,34.6,29.85,ESE,115,2.0,10.0,88,0.00,,,0.00,WUHU216DAVISVP2,2013-02-08 01:19:00,
2013-02-07 20:24:00,37.9,34.6,29.86,ESE,113,2.0,9.0,88,0.00,,,0.00,WUHU216DAVISVP2,2013-02-08 01:24:00,
2013-02-07 20:29:00,38.0,34.7,29.85,East,99,3.0,10.0,88,0.00,,,0.00,WUHU216DAVISVP2,2013-02-08 01:29:00,
2013-02-07 20:34:00,38.1,34.8,29.85,ESE,113,6.0,10.0,88,0.00,,,0.00,WUHU216DAVISVP2,2013-02-08 01:34:00,
2013-02-07 20:39:00,38.1,34.8,29.85,ESE,118,1.0,9.0,88,0.00,,,0.00,WUHU216DAVISVP2,2013-02-08 01:39:00,
2013-02-07 20:44:00,38.0,34.7,29.86,SE,133,0.0,9.0,88,0.00,,,0.00,WUHU216DAVISVP2,2013-02-08 01:44:00,
2013-02-07 20:49:00,37.9,34.6,29.86,WSW,250,0.0,9.0,88,0.00,,,0.00,WUHU216DAVISVP2,2013-02-08 01:49:00,
2013-02-07 20:54:00,37.8,34.8,29.86,West,274,0.0,6.0,89,0.01,,,0.01,WUHU216DAVISVP2,2013-02-08 01:54:00,
2013-02-07 20:59:00,37.7,34.7,29.86,West,274,0.0,1.0,89,0.02,,,0.02,WUHU216DAVISVP2,2013-02-08 01:59:00,
2013-02-07 21:04:00,37.6,34.6,29.86,West,274,0.0,0.0,89,0.02,,,0.02,WUHU216DAVISVP2,2013-02-08 02:04:00,
2013-02-07 21:09:00,37.5,34.8,29.86,East,87,0.0,0.0,90,0.02,,,0.02,WUHU216DAVISVP2,2013-02-08 02:09:00,
2013-02-07 21:14:00,37.3,34.6,29.85,ENE,77,0.0,0.0,90,0.03,,,0.03,WUHU216DAVISVP2,2013-02-08 02:14:00,
2013-02-07 21:19:00,37.1,34.4,29.85,ENE,77,0.0,0.0,90,0.03,,,0.03,WUHU216DAVISVP2,2013-02-08 02:19:00,
2013-02-07 21:24:00,37.1,34.7,29.85,ENE,70,0.0,0.0,91,0.03,,,0.03,WUHU216DAVISVP2,2013-02-08 02:24:00,
2013-02-07 21:29:00,37.0,34.6,29.85,ENE,70,0.0,0.0,91,0.03,,,0.03,WUHU216DAVISVP2,2013-02-08 02:29:00,
2013-02-07 21:34:00,36.9,34.5,29.85,NW,314,0.0,0.0,91,0.04,,,0.04,WUHU216DAVISVP2,2013-02-08 02:34:00,
2013-02-07 21:39:00,36.8,34.6,29.85,WNW,302,0.0,1.0,92,0.04,,,0.04,WUHU216DAVISVP2,2013-02-08 02:39:00,
2013-02-07 21:44:00,36.7,34.5,29.86,NW,317,0.0,2.0,92,0.05,,,0.05,WUHU216DAVISVP2,2013-02-08 02:44:00,
2013-02-07 21:49:00,36.5,34.6,29.86,NW,311,0.0,2.0,93,0.05,,,0.05,WUHU216DAVISVP2,2013-02-08 02:49:00,
2013-02-07 21:54:00,36.5,34.6,29.85,NNE,19,0.0,2.0,93,0.04,,,0.05,WUHU216DAVISVP2,2013-02-08 02:54:00,
2013-02-07 21:59:00,36.4,34.5,29.85,ENE,61,0.0,2.0,93,0.03,,,0.05,WUHU216DAVISVP2,2013-02-08 02:59:00,
2013-02-07 22:04:00,36.3,34.4,29.84,NNE,26,0.0,1.0,93,0.03,,,0.05,WUHU216DAVISVP2,2013-02-08 03:04:00,
2013-02-07 22:09:00,36.1,34.3,29.84,NE,50,0.0,1.0,93,0.03,,,0.05,WUHU216DAVISVP2,2013-02-08 03:09:00,
2013-02-07 22:14:00,36.0,34.2,29.84,NE,50,0.0,1.0,93,0.02,,,0.05,WUHU216DAVISVP2,2013-02-08 03:14:00,
2013-02-07 22:19:00,35.9,34.3,29.84,North,356,0.0,0.0,94,0.02,,,0.05,WUHU216DAVISVP2,2013-02-08 03:19:00,
2013-02-07 22:24:00,35.9,34.3,29.83,NNE,23,0.0,0.0,94,0.02,,,0.05,WUHU216DAVISVP2,2013-02-08 03:24:00,
2013-02-07 22:29:00,35.7,34.1,29.83,NNE,23,0.0,0.0,94,0.02,,,0.05,WUHU216DAVISVP2,2013-02-08 03:29:00,
2013-02-07 22:34:00,35.6,34.0,29.82,East,91,0.0,0.0,94,0.01,,,0.05,WUHU216DAVISVP2,2013-02-08 03:34:00,
2013-02-07 22:39:00,35.6,34.0,29.83,East,89,0.0,0.0,94,0.01,,,0.05,WUHU216DAVISVP2,2013-02-08 03:39:00,
2013-02-07 22:44:00,35.6,34.0,29.83,East,89,0.0,0.0,94,0.00,,,0.05,WUHU216DAVISVP2,2013-02-08 03:44:00,
2013-02-07 22:49:00,35.5,33.9,29.83,East,89,0.0,0.0,94,0.00,,,0.05,WUHU216DAVISVP2,2013-02-08 03:49:00,
2013-02-07 22:54:00,35.5,33.9,29.83,East,89,0.0,0.0,94,0.00,,,0.05,WUHU216DAVISVP2,2013-02-08 03:54:00,
2013-02-07 22:59:00,35.5,34.2,29.82,East,89,0.0,0.0,95,0.00,,,0.05,WUHU216DAVISVP2,2013-02-08 03:59:00,
2013-02-07 23:04:00,35.5,34.2,29.82,SSW,196,0.0,0.0,95,0.01,,,0.06,WUHU216DAVISVP2,2013-02-08 04:04:00,
2013-02-07 23:09:00,35.5,34.2,29.83,West,278,0.0,0.0,95,0.01,,,0.06,WUHU216DAVISVP2,2013-02-08 04:09:00,
2013-02-07 23:14:00,35.6,34.3,29.83,West,266,0.0,0.0,95,0.01,,,0.06,WUHU216DAVISVP2,2013-02-08 04:14:00,
2013-02-07 23:19:00,35.6,34.3,29.83,West,281,0.0,0.0,95,0.01,,,0.06,WUHU216DAVISVP2,2013-02-08 04:19:00,
2013-02-07 23:24:00,35.7,34.4,29.83,West,281,0.0,0.0,95,0.01,,,0.06,WUHU216DAVISVP2,2013-02-08 04:24:00,
2013-02-07 23:29:00,35.6,34.3,29.83,West,267,0.0,0.0,95,0.01,,,0.06,WUHU216DAVISVP2,2013-02-08 04:29:00,
2013-02-07 23:34:00,35.7,34.6,29.82,West,267,0.0,0.0,96,0.01,,,0.06,WUHU216DAVISVP2,2013-02-08 04:34:00,
2013-02-07 23:39:00,35.7,34.7,29.82,West,267,0.0,0.0,96,0.01,,,0.06,WUHU216DAVISVP2,2013-02-08 04:39:00,
2013-02-07 23:44:00,35.7,34.7,29.82,West,267,0.0,0.0,96,0.01,,,0.06,WUHU216DAVISVP2,2013-02-08 04:44:00,
2013-02-07 23:49:00,35.7,34.7,29.82,West,267,0.0,0.0,96,0.01,,,0.06,WUHU216DAVISVP2,2013-02-08 04:49:00,
2013-02-07 23:54:00,35.7,34.7,29.82,West,267,0.0,0.0,96,0.01,,,0.06,WUHU216DAVISVP2,2013-02-08 04:54:00,
2013-02-07 23:59:00,35.8,34.7,29.82,West,273,0.0,0.0,96,0.01,,,0.06,WUHU216DAVISVP2,2013-02-08 04:59:00,